TJS-17

Last updated on Mon Oct 20 2025 00:02:51 GMT+0000 (Coordinated Universal Time)

1 63524U 25073A 25292.72513208 -.00000069 00000+0 00000+0 0 9999 2 63524 0.4394 83.3633 0002334 180.4692 190.1975 1.00273820 1882
UTC large
Height (km)
Speed (km/s)
/
Latitude / Longitude
Inclination (degrees)
Orbital Period (minutes)
Azimuth
Elevation
Range (km)
Doppler Factor

Next 0 passes for location: London (51.5072 / 0.1276)

Sorry there are no passes over London.